Location: Hilton Head Island
(32.2163°N, 80.7526°W)
Time: 02:47:40
(UTC-04:00)

Explorer 7 - Pass Details

Date: 19 February 2026
Orbit: 430 x 541 km, 50.2° (Epoch: 11 March)

Event Time Altitude Azimuth Distance (km) Brightness Sun altitude
Rises 12:25:32 0° 181° (S) 2,376 10.8 46.6°
Reaches altitude 10° 12:28:56 10° 145° (SE) 1,522 9.8 46.7°
Maximum altitude 12:30:00 11° 126° (SE) 1,457 9.5 46.7°
Drops below altitude 10° 12:31:05 10° 108° (ESE) 1,532 9.4 46.7°
Sets 12:34:32 0° 72° (ENE) 2,424 10.0 46.7°
